Regional Weather Roundup
Issued by NWS Midland/Odessa, TX

Skip options and go directly to product.
Home | Oldest Version | Previous Version | Current Version | All | Text Only | Save Text | Print | Product List | Glossary On

Skip product version selection by date and time.   
627
ASUS44 KMAF 222010
RWRMAF
MIDLAND AREA WEATHER ROUNDUP
NATIONAL WEATHER SERVICE MIDLAND TX
300 PM CDT MON SEP 22 2014

...IN SOUTHWEST TEXAS AND SOUTHEAST NEW MEXICO...

CITY           SKY/WX    TMP DP  RH WIND       PRES   REMARKS
ALPINE         CLOUDY    75  56  51 SE8       30.31F
ANDREWS        PTSUNNY   74  66  75 E8        30.23F
ARTESIA        NOT AVBL
BIG SPRING     PTSUNNY   84  61  45 E8        30.22F
CARLSBAD       CLOUDY    73  73 100 S9        30.20F
DRYDEN           N/A     90  57  32 E20G25    30.14F
FORT STOCKTON  PTSUNNY   81  56  42 SE14      30.18F
GUAD PASS      FOG       61  61 100 NE26      30.28R VSB 1/4
HOBBS          PTSUNNY   72  68  88 E13       30.25F
MARFA          PTSUNNY   73  57  56 E14G22    30.28F
MIDLAND AIRPK  PTSUNNY   82  61  47 SE10G17   30.20
MIDLAND INTL   PTSUNNY   80  62  54 SE15      30.20F
ODESSA         PTSUNNY   80  60  50 SE17G24   30.21F
PECOS          PTSUNNY   80  63  55 SE14      30.16F
PRESIDIO       CLOUDY    86  61  43 NE10      30.11F
SEMINOLE       PTSUNNY   77  62  60 SE10G20   30.25F
SNYDER         PTSUNNY   78  67  69 NE8       30.22F
WINK           CLOUDY    78  65  63 SE9       30.18F
$$
...OTHER STATIONS IN TEXAS...

CITY           SKY/WX    TMP DP  RH WIND       PRES   REMARKS
ABILENE        MOSUNNY   88  62  41 N8        30.18F
AMARILLO       SUNNY     74  55  51 S18G25    30.27F
AUSTIN         PTSUNNY   90  69  50 N10       30.07F
BROWNSVILLE    PTSUNNY   86  76  71 NE14G21   29.97F
CORPUS CHRISTI PTSUNNY   90  68  48 NE16      30.02F
DALLAS FTW     MOSUNNY   86  48  26 N5        30.14F
DEL RIO        SUNNY     89  59  36 S7        30.09F
EL PASO        CLOUDY    73  66  78 N8        30.16F
HOUSTON INT    MOSUNNY   92  72  51 N7        30.03F
LUBBOCK        PTSUNNY   75  62  64 SE13      30.26F
SAN ANGELO     SUNNY     89  59  36 E13       30.16F
SAN ANTONIO    CLOUDY    92  63  38 E9        30.08F
WACO           MOSUNNY   89  64  43 NE10      30.10F
WICHITA FALLS  NOT AVBL
$$
...OTHER LOCATIONS IN NEW MEXICO...

CITY           SKY/WX    TMP DP  RH WIND       PRES   REMARKS
ALAMAGORDO     NOT AVBL
ALBUQUERQUE    MOSUNNY   78  55  44 S9        30.24F
CANNON AFB     PTSUNNY   70  63  78 SE14      30.29F
CLOVIS           N/A     70  63  78 S12       30.31F
HOLLOMAN AFB   NOT AVBL
ROSWELL        RAIN      66  64  93 S14       30.25S FOG
RUIDOSO        LGT RAIN  59  57  94 S9        30.39F
SANTA FE       MOSUNNY   73  54  51 VRB5      30.29F
TRUTH OR CONSE CLOUDY    74  63  68 SE9       30.22F
TUCUMCARI      CLOUDY    73  63  70 S15       30.26F
$$

USA.gov is the U.S. government's official web portal to all federal, state and local government web resources and services.